Regional Weather Roundup
Issued by NWS State College, PA

Home | Current Version | Previous Version | Text Only | Print | Product List | Glossary On
Versions: 1 2 3 4 5 6 7 8 9 10 11 12 13 14 15 16 17 18 19 20 21 22 23 24 25 26 27 28 29 30 31 32 33 34 35 36 37 38 39 40 41 42 43 44 45 46 47 48 49 50
000
ASUS41 KCTP 131510
RWRCTP

REGIONAL WEATHER ROUNDUP
NATIONAL WEATHER SERVICE STATE COLLEGE PA
1000 AM EST SAT FEB 13 2016

Note: "fair" indicates few or no clouds below 12,000 feet with no
significant weather and/or obstructions to visibility.

* = STATION THAT DOES NOT REPORT PRECIPITATION /E.G. RAIN...SNOW...ETC/
    THUNDER OR FOG.

PAZ002>004-007>009-013>016-020>023-029>032-131600-
WESTERN PENNSYLVANIA

CITY           SKY/WX    TMP DP  RH WIND       PRES   REMARKS
ERIE           CLOUDY     6  -4  63 N13G20    30.35R WCI -10
MEADVILLE      SNOW       5  -2  72 NW8       30.24R VSB 1/2 WCI  -8
FRANKLIN*      CLOUDY     3  -9  55 NW7       30.24R WCI  -9
NEW CASTLE     LGT SNOW   9   0  66 NW18      30.32R VSB 1   WCI -10
BEAVER COUNTY  CLOUDY     9   0  66 W10G20    30.30  HAZE    WCI  -6
BUTLER*        PTSUNNY    9  -2  61 NW15G23   30.30R WCI  -8
PITTSBURGH INT MOSUNNY    8  -2  63 W24G31    30.29R WCI -13
PITTSBURGH     MOSUNNY   10  -5  50 W13G24    30.29R WCI  -5
INDIANA*       CLOUDY     7   0  72 NW12G21   30.25R HAZE    WCI  -9
LATROBE        MOSUNNY    9   0  66 W21G32    30.29R WCI -11
WASHINGTON CO* MOSUNNY    9  -6  52 W14G21    30.33R WCI  -8
$$

PAZ004>006-010>012-017>019-024>028-033>037-041-042-045-046-049>053-131600-
CENTRAL PENNSYLVANIA

CITY           SKY/WX    TMP DP  RH WIND       PRES   REMARKS
BRADFORD       LGT SNOW  -1 -10  65 NW17G28   30.09R VSB 1   WCI -22
DUBOIS         CLOUDY     3  -7  63 NW10G20   30.14R WCI -12
CLEARFIELD     CLOUDY     6  -9  50 NW21G31   30.16R WCI -14
JOHNSTOWN      LGT SNOW   3  -7  63 W22G31    30.09R WCI -19
ALTOONA        CLOUDY     7  -4  60 NW23G31   30.15R WCI -14
STATE COLLEGE  CLOUDY     9  -8  47 NW23      30.16R WCI -12
WILLIAMSPORT   PTSUNNY   14  -8  37 W20G33    30.15R WCI  -3
SELINSGROVE    MIX PCPN  14  -4  44 W18G29    30.17R WCI  -3
FT INDIANTOWN  MOSUNNY   16  -1  47 NW15G29   30.14R WCI   1
CAPITAL CITY   MOSUNNY   17  -4  39 NW18G28   30.19R WCI   1
HARRISBURG     MOSUNNY   16   1  51 NW23G31   30.17R WCI  -2
YORK           SUNNY     15  -2  46 NW18G28   30.18R WCI  -2
$$

PAZ038>040-043-044-047-048-054-055-060>062-067>071-131600-
EASTERN PENNSYLVANIA

CITY           SKY/WX    TMP DP  RH WIND       PRES   REMARKS
SCRANTON       CLOUDY    10  -3  55 N16G31    30.06R BLWGSNOWWCI  -7
MOUNT POCONO   PTSUNNY    7  -8  50 NW17G37   29.91R BLWGSNOWWCI -12
ALLENTOWN      PTSUNNY   18  -3  39 W21G28    30.08R WCI   1
QUAKERTOWN*    MOSUNNY   18  -2  41 N14G26    30.08R WCI   4
READING        PTSUNNY   17   4  56 W17G25    30.12R WCI   1
LANCASTER      PTSUNNY   16   3  56 NW28G35   30.13R WCI  -4
COATESVILLE    FLURRIES  16   5  62 NW20G26   30.11R WCI  -1
POTTSTOWN      PTSUNNY   19  -1  41 W13G24    30.12R WCI   6
BLUE BELL        N/A     19  -4  35 NW12G22   30.09S WCI   7
DOYLESTOWN     SUNNY     18  -7  32 NW17G29   30.07R WCI   3
WILLOW GROVE   NOT AVBL
NORTH PHILA    MOSUNNY   22  -5  30 NW25G33   30.12R WCI   5
PHILADELPHIA   PTSUNNY   23  -6  28 NW20G25   30.13R WCI   8
$$



USA.gov is the U.S. government's official web portal to all federal, state and local government web resources and services.